O3B FM9 (40351 NORAD) Tracking and Keplerian Element Data

This shows tracking and keplerian element data for the satellite.

Feedback or suggestion? Click here.




ElementValue
Catalog40351
NameO3B FM9
Epoch Orbit12380
Epoch Day269.76999217
Epoch Year2021
RAAN359.824
Inclination0.0451
Eccentricity0.000253
Argument of Perigee184.7472
Mean Anonmoly175.4305
Mean Motion5.00115128
Decay Rate-2.6E-07
L11 40351U 14083D 21269.76999217 -.00000026 00000-0 00000-0 0 9998
L22 40351 0.0451 359.8240 0002530 184.7472 175.4305 5.00115128123801

Live tracking and technical data element details for O3B FM9 (NORAD 40351). O3B FM9 can be tracked NOW for your location showing map with azimuth and elevation plus other details from your city location.

Track the satellite on the map from your city or location and see movement details for azimuth, elevation, latitude, longitude, range, height, and movement on the map or in text.







IsCatalogInMostPopularTable: catalog: 40351, numindb: 564
Update: records affected: 1



GetName: 40351 O3B FM9

Hit Count: updated at: Tue, 28 Sep 2021 16:06:00 GMT